Station Historical Data
Daily Summary for January 24, 2017 Units:  Metric    English   Both
« Previous Day
Next Day »
Daily Weekly Monthly Yearly Custom
  High: Low: Average:
Temperature: 1.3 °C -0.3 °C 0.4 °C
Dew Point: -0.9 °C -2.3 °C -1.4 °C
Humidity: 93% 78% 88%
Wind Speed: 19.3km/h 0km/h 5.1km/h
Wind Gust: 24.1km/h - -
Wind- - SSW
Pressure: 1006.7 hPa 1004.6 hPa -
Precipitation: 0 mm    
Historical Graphs
 
 
Tabular Data for January 24, 2017
Time Temperature Dew Point Pressure Wind Wind Speed Wind Gust Humidity Rainfall Rate (Hourly)
00:04 1.3 °C -2.1 °C 1006.3 hPa NE 11.3 km/h 20.9 km/h 78% 0 mm
00:09 1.3 °C -2.1 °C 1006.3 hPa NE 9.7 km/h 16.1 km/h 78% 0 mm
00:14 1.3 °C -2.1 °C 1006.3 hPa ENE 4.8 km/h 20.9 km/h 78% 0 mm
00:19 1.3 °C -2.1 °C 1006.3 hPa NE 9.7 km/h 19.3 km/h 78% 0 mm
00:24 1.3 °C -2.1 °C 1006.3 hPa ENE 4.8 km/h 20.9 km/h 78% 0 mm
00:29 1.3 °C -2.1 °C 1006.3 hPa NE 9.7 km/h 17.7 km/h 78% 0 mm
00:34 1.3 °C -2.1 °C 1006.3 hPa NE 9.7 km/h 17.7 km/h 78% 0 mm
00:39 1.3 °C -2.1 °C 1006 hPa NE 9.7 km/h 24.1 km/h 78% 0 mm
00:44 1.3 °C -2.1 °C 1006.3 hPa NE 8 km/h 24.1 km/h 78% 0 mm
00:49 1.3 °C -2.1 °C 1006 hPa NE 11.3 km/h 19.3 km/h 78% 0 mm
00:54 1.3 °C -2.1 °C 1006 hPa NE 6.4 km/h 14.5 km/h 78% 0 mm
00:59 1.3 °C -2.1 °C 1006 hPa NE 4.8 km/h 16.1 km/h 78% 0 mm
01:04 1.3 °C -2.1 °C 1006 hPa ENE 11.3 km/h 16.1 km/h 78% 0 mm
01:09 1.2 °C -2.2 °C 1006 hPa NE 8 km/h 16.1 km/h 78% 0 mm
01:14 1.3 °C -2.1 °C 1006 hPa NE 8 km/h 16.1 km/h 78% 0 mm
01:19 1.2 °C -2.2 °C 1005.6 hPa NE 9.7 km/h 14.5 km/h 78% 0 mm
01:24 1.2 °C -2 °C 1006 hPa NE 3.2 km/h 12.9 km/h 79% 0 mm
01:29 1.2 °C -2.1 °C 1005.6 hPa NE 6.4 km/h 14.5 km/h 79% 0 mm
01:34 1.2 °C -2.1 °C 1005.6 hPa NE 12.9 km/h 14.5 km/h 79% 0 mm
01:39 1.2 °C -2.2 °C 1005.6 hPa NE 8 km/h 16.1 km/h 78% 0 mm
01:44 1.2 °C -2.2 °C 1005.6 hPa NE 9.7 km/h 17.7 km/h 78% 0 mm
01:49 1.1 °C -2.1 °C 1005.6 hPa NE 9.7 km/h 17.7 km/h 79% 0 mm
01:54 1.2 °C -2.2 °C 1005.6 hPa NE 8 km/h 16.1 km/h 78% 0 mm
01:59 1.1 °C -2.3 °C 1005.6 hPa NE 8 km/h 17.7 km/h 78% 0 mm
02:04 1.1 °C -2.3 °C 1005.6 hPa NE 6.4 km/h 14.5 km/h 78% 0 mm
02:09 1.1 °C -2.1 °C 1005.6 hPa East 8 km/h 16.1 km/h 79% 0 mm
02:14 1.1 °C -2.1 °C 1005.6 hPa NE 11.3 km/h 17.7 km/h 79% 0 mm
02:19 1.1 °C -2.1 °C 1005.6 hPa NNE 11.3 km/h 17.7 km/h 79% 0 mm
02:24 1.1 °C -2 °C 1005.6 hPa NE 4.8 km/h 14.5 km/h 80% 0 mm
02:29 1 °C -2.1 °C 1005.6 hPa NE 9.7 km/h 16.1 km/h 80% 0 mm
02:34 1 °C -1.9 °C 1005.6 hPa NE 8 km/h 16.1 km/h 81% 0 mm
02:39 0.9 °C -1.9 °C 1005.6 hPa NE 8 km/h 20.9 km/h 81% 0 mm
02:44 0.8 °C -2.1 °C 1005.6 hPa NE 11.3 km/h 20.9 km/h 81% 0 mm
02:49 0.8 °C -1.9 °C 1005.6 hPa NE 9.7 km/h 20.9 km/h 82% 0 mm
02:54 0.8 °C -1.7 °C 1005.6 hPa NE 8 km/h 14.5 km/h 83% 0 mm
02:59 0.7 °C -1.8 °C 1005.6 hPa NE 8 km/h 16.1 km/h 83% 0 mm
03:04 0.7 °C -1.8 °C 1005.6 hPa NE 9.7 km/h 16.1 km/h 83% 0 mm
03:09 0.7 °C -1.7 °C 1005.3 hPa NE 8 km/h 14.5 km/h 84% 0 mm
03:14 0.6 °C -1.8 °C 1005.3 hPa ENE 8 km/h 14.5 km/h 84% 0 mm
03:19 0.6 °C -1.7 °C 1005.3 hPa ENE 6.4 km/h 12.9 km/h 85% 0 mm
03:24 0.6 °C -1.7 °C 1005.3 hPa NE 11.3 km/h 14.5 km/h 85% 0 mm
03:29 0.5 °C -1.6 °C 1005.3 hPa ENE 11.3 km/h 12.9 km/h 86% 0 mm
03:34 0.4 °C -1.4 °C 1005.3 hPa NE 3.2 km/h 12.9 km/h 87% 0 mm
03:39 0.4 °C -1.5 °C 1005.3 hPa ENE 4.8 km/h 12.9 km/h 87% 0 mm
03:44 0.4 °C -1.4 °C 1005 hPa NE 4.8 km/h 12.9 km/h 88% 0 mm
03:49 0.3 °C -1.4 °C 1005.3 hPa NE 4.8 km/h 12.9 km/h 88% 0 mm
03:54 0.3 °C -1.5 °C 1005.3 hPa NE 6.4 km/h 11.3 km/h 88% 0 mm
03:59 0.3 °C -1.3 °C 1005.3 hPa NE 4.8 km/h 11.3 km/h 89% 0 mm
04:04 0.3 °C -1.3 °C 1005 hPa NE 4.8 km/h 11.3 km/h 89% 0 mm
04:09 0.3 °C -1.3 °C 1005 hPa NE 8 km/h 14.5 km/h 89% 0 mm
04:14 0.2 °C -1.4 °C 1005 hPa NE 6.4 km/h 14.5 km/h 89% 0 mm
04:19 0.2 °C -1.3 °C 1005 hPa NE 4.8 km/h 12.9 km/h 90% 0 mm
04:24 0.2 °C -1.3 °C 1005 hPa NE 3.2 km/h 11.3 km/h 90% 0 mm
04:29 0.2 °C -1.3 °C 1005 hPa NNE 4.8 km/h 11.3 km/h 90% 0 mm
04:34 0.2 °C -1.3 °C 1005 hPa NE 1.6 km/h 6.4 km/h 90% 0 mm
04:39 0.2 °C -1.3 °C 1005 hPa NNE 3.2 km/h 8 km/h 90% 0 mm
04:44 0.2 °C -1.1 °C 1005 hPa NE 3.2 km/h 8 km/h 91% 0 mm
04:49 0.1 °C -1.2 °C 1005 hPa NE 3.2 km/h 11.3 km/h 91% 0 mm
04:54 0.1 °C -1.2 °C 1005 hPa NE 4.8 km/h 11.3 km/h 91% 0 mm
04:59 0.1 °C -1.2 °C 1005 hPa NE 4.8 km/h 9.7 km/h 91% 0 mm
05:04 0.1 °C -1.2 °C 1005 hPa NNE 4.8 km/h 6.4 km/h 91% 0 mm
05:09 0.1 °C -1.2 °C 1004.6 hPa NNE 1.6 km/h 8 km/h 91% 0 mm
05:14 0.1 °C -1.2 °C 1004.6 hPa NNE 3.2 km/h 8 km/h 91% 0 mm
05:19 0.1 °C -1.2 °C 1004.6 hPa NNE 4.8 km/h 8 km/h 91% 0 mm
05:24 0.1 °C -1.1 °C 1004.6 hPa NE 4.8 km/h 9.7 km/h 92% 0 mm
05:29 0.1 °C -1.1 °C 1004.6 hPa NE 3.2 km/h 9.7 km/h 92% 0 mm
05:34 0.1 °C -1.1 °C 1004.6 hPa NNE 3.2 km/h 4.8 km/h 92% 0 mm
05:39 0.1 °C -1.1 °C 1005 hPa North 3.2 km/h 8 km/h 92% 0 mm
05:44 0.1 °C -1.1 °C 1004.6 hPa NNE 3.2 km/h 8 km/h 92% 0 mm
05:49 0.2 °C -1 °C 1004.6 hPa North 3.2 km/h 8 km/h 92% 0 mm
05:54 0.1 °C -1.1 °C 1004.6 hPa NNE 4.8 km/h 6.4 km/h 92% 0 mm
05:59 0.2 °C -1 °C 1004.6 hPa NNE 4.8 km/h 6.4 km/h 92% 0 mm
06:04 0.1 °C -1.1 °C 1005 hPa NE 4.8 km/h 12.9 km/h 92% 0 mm
06:09 0.1 °C -1.1 °C 1005 hPa NE 6.4 km/h 9.7 km/h 92% 0 mm
06:14 0.1 °C -1.1 °C 1004.6 hPa NNE 4.8 km/h 8 km/h 92% 0 mm
06:19 0.1 °C -1.1 °C 1005 hPa NNE 4.8 km/h 9.7 km/h 92% 0 mm
06:24 0.1 °C -1.1 °C 1005 hPa NNE 4.8 km/h 9.7 km/h 92% 0 mm
06:29 0.1 °C -1.1 °C 1005 hPa NNE 4.8 km/h 8 km/h 92% 0 mm
06:34 0.1 °C -1.1 °C 1005 hPa NNE 4.8 km/h 8 km/h 92% 0 mm
06:39 0 °C -1.2 °C 1005 hPa NNE 4.8 km/h 9.7 km/h 92% 0 mm
06:44 0 °C -1.2 °C 1005 hPa NNE 4.8 km/h 9.7 km/h 92% 0 mm
06:49 0 °C -1.2 °C 1005 hPa North 4.8 km/h 9.7 km/h 92% 0 mm
06:54 0 °C -1.2 °C 1005 hPa North 3.2 km/h 8 km/h 92% 0 mm
06:59 -0.1 °C -1.2 °C 1005 hPa NE 3.2 km/h 11.3 km/h 92% 0 mm
07:04 -0.1 °C -1.2 °C 1005 hPa NNE 4.8 km/h 6.4 km/h 92% 0 mm
07:09 -0.1 °C -1.2 °C 1005.3 hPa North 4.8 km/h 11.3 km/h 92% 0 mm
07:14 -0.1 °C -1.2 °C 1005.3 hPa North 3.2 km/h 9.7 km/h 92% 0 mm
07:19 -0.1 °C -1.3 °C 1005.3 hPa NNE 8 km/h 9.7 km/h 92% 0 mm
07:24 -0.2 °C -1.3 °C 1005.3 hPa NNE 4.8 km/h 9.7 km/h 92% 0 mm
07:29 -0.2 °C -1.3 °C 1005.3 hPa NNE 4.8 km/h 9.7 km/h 92% 0 mm
07:34 -0.2 °C -1.3 °C 1005.6 hPa NNE 4.8 km/h 8 km/h 92% 0 mm
07:39 -0.2 °C -1.3 °C 1005.6 hPa NNE 4.8 km/h 11.3 km/h 92% 0 mm
07:44 -0.2 °C -1.3 °C 1005.6 hPa NNE 6.4 km/h 11.3 km/h 92% 0 mm
07:49 -0.2 °C -1.4 °C 1005.6 hPa NNE 6.4 km/h 9.7 km/h 92% 0 mm
07:54 -0.2 °C -1.3 °C 1005.6 hPa North 6.4 km/h 11.3 km/h 92% 0 mm
07:59 -0.2 °C -1.4 °C 1005.6 hPa North 4.8 km/h 12.9 km/h 92% 0 mm
08:04 -0.3 °C -1.4 °C 1005.6 hPa NNE 8 km/h 9.7 km/h 92% 0 mm
08:09 -0.3 °C -1.4 °C 1005.6 hPa NNE 4.8 km/h 9.7 km/h 92% 0 mm
08:14 -0.3 °C -1.4 °C 1005.6 hPa North 4.8 km/h 8 km/h 92% 0 mm
08:19 -0.3 °C -1.4 °C 1005.6 hPa North 3.2 km/h 8 km/h 92% 0 mm
08:24 -0.3 °C -1.3 °C 1005.6 hPa North 4.8 km/h 6.4 km/h 93% 0 mm
08:29 -0.3 °C -1.3 °C 1005.6 hPa North 4.8 km/h 9.7 km/h 93% 0 mm
08:34 -0.3 °C -1.5 °C 1005.6 hPa North 4.8 km/h 11.3 km/h 92% 0 mm
08:39 -0.3 °C -1.4 °C 1005.6 hPa North 4.8 km/h 11.3 km/h 92% 0 mm
08:44 -0.3 °C -1.5 °C 1005.6 hPa North 4.8 km/h 9.7 km/h 92% 0 mm
08:49 -0.3 °C -1.5 °C 1005.6 hPa North 4.8 km/h 9.7 km/h 92% 0 mm
08:54 -0.3 °C -1.5 °C 1005.6 hPa North 4.8 km/h 9.7 km/h 92% 0 mm
08:59 -0.3 °C -1.3 °C 1005.6 hPa NNW 1.6 km/h 8 km/h 93% 0 mm
09:04 -0.3 °C -1.3 °C 1005.6 hPa NNE 3.2 km/h 9.7 km/h 93% 0 mm
09:09 -0.3 °C -1.3 °C 1005.6 hPa NNE 6.4 km/h 8 km/h 93% 0 mm
09:14 -0.3 °C -1.3 °C 1005.6 hPa NNE 6.4 km/h 11.3 km/h 93% 0 mm
09:19 -0.3 °C -1.3 °C 1005.6 hPa NNE 4.8 km/h 11.3 km/h 93% 0 mm
09:24 -0.3 °C -1.3 °C 1005.6 hPa North 4.8 km/h 8 km/h 93% 0 mm
09:29 -0.3 °C -1.3 °C 1006 hPa NNE 6.4 km/h 8 km/h 93% 0 mm
09:34 -0.3 °C -1.3 °C 1006 hPa NNE 4.8 km/h 9.7 km/h 93% 0 mm
09:39 -0.3 °C -1.3 °C 1006 hPa North 4.8 km/h 9.7 km/h 93% 0 mm
09:44 -0.3 °C -1.3 °C 1006 hPa North 4.8 km/h 9.7 km/h 93% 0 mm
09:49 -0.3 °C -1.3 °C 1006 hPa North 4.8 km/h 9.7 km/h 93% 0 mm
09:54 -0.3 °C -1.3 °C 1005.6 hPa North 3.2 km/h 8 km/h 93% 0 mm
09:59 -0.3 °C -1.3 °C 1005.6 hPa North 1.6 km/h 11.3 km/h 93% 0 mm
10:04 -0.3 °C -1.5 °C 1006 hPa North 6.4 km/h 9.7 km/h 92% 0 mm
10:09 -0.3 °C -1.5 °C 1006 hPa NW 3.2 km/h 9.7 km/h 92% 0 mm
10:14 -0.3 °C -1.5 °C 1006 hPa North 3.2 km/h 12.9 km/h 92% 0 mm
10:19 -0.3 °C -1.5 °C 1006 hPa North 3.2 km/h 11.3 km/h 92% 0 mm
10:24 -0.3 °C -1.5 °C 1006 hPa North 1.6 km/h 11.3 km/h 92% 0 mm
10:29 -0.3 °C -1.5 °C 1005.6 hPa North 4.8 km/h 11.3 km/h 92% 0 mm
10:34 -0.3 °C -1.6 °C 1005.6 hPa North 4.8 km/h 11.3 km/h 91% 0 mm
10:39 -0.2 °C -1.4 °C 1006 hPa North 4.8 km/h 9.7 km/h 92% 0 mm
10:44 -0.2 °C -1.5 °C 1006 hPa North 4.8 km/h 12.9 km/h 91% 0 mm
10:49 -0.2 °C -1.4 °C 1006 hPa North 6.4 km/h 12.9 km/h 91% 0 mm
10:54 -0.2 °C -1.5 °C 1006 hPa North 6.4 km/h 12.9 km/h 91% 0 mm
10:59 -0.2 °C -1.4 °C 1006 hPa North 4.8 km/h 9.7 km/h 91% 0 mm
11:04 -0.2 °C -1.4 °C 1006 hPa North 3.2 km/h 8 km/h 91% 0 mm
11:09 -0.1 °C -1.4 °C 1005.6 hPa North 3.2 km/h 8 km/h 91% 0 mm
11:14 -0.2 °C -1.4 °C 1005.6 hPa North 3.2 km/h 8 km/h 91% 0 mm
11:19 -0.2 °C -1.5 °C 1005.6 hPa NNW 4.8 km/h 4.8 km/h 91% 0 mm
11:24 -0.3 °C -1.6 °C 1005.6 hPa NW 4.8 km/h 8 km/h 91% 0 mm
11:29 -0.2 °C -1.4 °C 1005.6 hPa NNW 9.7 km/h 9.7 km/h 92% 0 mm
11:34 -0.3 °C -1.4 °C 1005.6 hPa NNW 6.4 km/h 9.7 km/h 92% 0 mm
11:39 -0.3 °C -1.6 °C 1005.6 hPa NNW 4.8 km/h 11.3 km/h 91% 0 mm
11:44 -0.2 °C -1.5 °C 1005.6 hPa North 6.4 km/h 11.3 km/h 91% 0 mm
11:49 -0.2 °C -1.5 °C 1005.3 hPa North 4.8 km/h 9.7 km/h 91% 0 mm
11:54 -0.2 °C -1.5 °C 1005.3 hPa NNW 4.8 km/h 9.7 km/h 91% 0 mm
11:59 -0.2 °C -1.4 °C 1005.3 hPa NNW 4.8 km/h 8 km/h 91% 0 mm
12:04 -0.2 °C -1.4 °C 1005.3 hPa NNW 4.8 km/h 9.7 km/h 91% 0 mm
12:09 -0.2 °C -1.6 °C 1005.3 hPa NW 4.8 km/h 8 km/h 90% 0 mm
12:14 -0.2 °C -1.5 °C 1005 hPa NNW 4.8 km/h 6.4 km/h 91% 0 mm
12:19 -0.2 °C -1.4 °C 1005 hPa Calm   8 km/h 91% 0 mm
12:24 -0.2 °C -1.4 °C 1005 hPa NNW 4.8 km/h 6.4 km/h 91% 0 mm
12:29 -0.2 °C -1.4 °C 1005 hPa NW 3.2 km/h 8 km/h 91% 0 mm
12:34 -0.2 °C -1.4 °C 1005 hPa NNW 4.8 km/h 8 km/h 91% 0 mm
12:39 -0.2 °C -1.4 °C 1005 hPa NW 4.8 km/h 8 km/h 91% 0 mm
12:44 -0.1 °C -1.4 °C 1005.3 hPa NW 4.8 km/h 11.3 km/h 91% 0 mm
12:49 0 °C -1.3 °C 1005 hPa NW 4.8 km/h 11.3 km/h 91% 0 mm
12:54 0 °C -1.3 °C 1005 hPa WNW 4.8 km/h 11.3 km/h 91% 0 mm
12:59 -0.1 °C -1.4 °C 1005 hPa NW 4.8 km/h 11.3 km/h 91% 0 mm
13:04 -0.1 °C -1.3 °C 1005 hPa NW 4.8 km/h 11.3 km/h 91% 0 mm
13:09 0 °C -1.3 °C 1005 hPa WNW 4.8 km/h 9.7 km/h 91% 0 mm
13:14 0.1 °C -1.4 °C 1005 hPa WNW 3.2 km/h 12.9 km/h 90% 0 mm
13:19 0.1 °C -1.3 °C 1004.6 hPa WNW 6.4 km/h 11.3 km/h 90% 0 mm
13:24 0.1 °C -1.3 °C 1004.6 hPa NW 6.4 km/h 8 km/h 90% 0 mm
13:29 0.1 °C -1.4 °C 1004.6 hPa West 1.6 km/h 8 km/h 90% 0 mm
13:34 0 °C -1.4 °C 1004.6 hPa NW 6.4 km/h 9.7 km/h 90% 0 mm
13:39 0.1 °C -1.4 °C 1004.6 hPa NW 4.8 km/h 9.7 km/h 90% 0 mm
13:44 0 °C -1.4 °C 1004.6 hPa NW 3.2 km/h 9.7 km/h 90% 0 mm
13:49 -0.1 °C -1.5 °C 1004.6 hPa NW 4.8 km/h 11.3 km/h 90% 0 mm
13:54 0 °C -1.4 °C 1004.6 hPa NW 4.8 km/h 11.3 km/h 90% 0 mm
13:59 0.1 °C -1.6 °C 1004.6 hPa NNW 4.8 km/h 9.7 km/h 89% 0 mm
14:04 0.1 °C -1.5 °C 1004.6 hPa West 1.6 km/h 9.7 km/h 89% 0 mm
14:09 0.2 °C -1.6 °C 1004.6 hPa WNW 4.8 km/h 9.7 km/h 88% 0 mm
14:14 0.2 °C -1.6 °C 1004.6 hPa WNW 4.8 km/h 12.9 km/h 88% 0 mm
14:19 0.3 °C -1.4 °C 1004.6 hPa WNW 4.8 km/h 12.9 km/h 88% 0 mm
14:24 0.3 °C -1.4 °C 1004.6 hPa NW 3.2 km/h 9.7 km/h 88% 0 mm
14:29 0.4 °C -1.4 °C 1004.6 hPa WNW 6.4 km/h 9.7 km/h 87% 0 mm
14:34 0.4 °C -1.5 °C 1004.6 hPa NNW 6.4 km/h 8 km/h 87% 0 mm
14:39 0.4 °C -1.4 °C 1004.6 hPa WNW 4.8 km/h 8 km/h 87% 0 mm
14:44 0.5 °C -1.3 °C 1004.6 hPa NW 3.2 km/h 8 km/h 88% 0 mm
14:49 0.5 °C -1.4 °C 1004.6 hPa WNW 3.2 km/h 9.7 km/h 87% 0 mm
14:54 0.6 °C -1.3 °C 1004.6 hPa WNW 4.8 km/h 9.7 km/h 87% 0 mm
14:59 0.6 °C -1.3 °C 1004.6 hPa NW 3.2 km/h 9.7 km/h 87% 0 mm
15:04 0.7 °C -1.2 °C 1004.6 hPa NNW 3.2 km/h 9.7 km/h 87% 0 mm
15:09 0.7 °C -1.2 °C 1004.6 hPa WNW 4.8 km/h 6.4 km/h 87% 0 mm
15:14 0.7 °C -1.2 °C 1004.6 hPa West 3.2 km/h 9.7 km/h 87% 0 mm
15:19 0.8 °C -1.2 °C 1004.6 hPa WNW 3.2 km/h 9.7 km/h 87% 0 mm
15:24 0.8 °C -1.3 °C 1004.6 hPa NW 4.8 km/h 8 km/h 86% 0.25 mm
15:29 0.8 °C -1.2 °C 1004.6 hPa West 4.8 km/h 11.3 km/h 86% 0.25 mm
15:34 0.8 °C -1.4 °C 1004.6 hPa WNW 8 km/h 12.9 km/h 85% 0.25 mm
15:39 0.9 °C -1.7 °C 1004.6 hPa NW 9.7 km/h 11.3 km/h 83% 0.25 mm
15:44 0.9 °C -1.7 °C 1004.6 hPa WNW 8 km/h 17.7 km/h 83% 0.25 mm
15:49 0.9 °C -1.7 °C 1004.6 hPa WNW 8 km/h 17.7 km/h 83% 0.25 mm
15:54 0.9 °C -1.4 °C 1004.6 hPa WNW 6.4 km/h 12.9 km/h 84% 0.25 mm
15:59 0.9 °C -1.6 °C 1005 hPa NW 8 km/h 11.3 km/h 83% 0.51 mm
16:04 0.9 °C -1.6 °C 1005 hPa WNW 6.4 km/h 14.5 km/h 83% 0.51 mm
16:09 0.9 °C -1.4 °C 1005 hPa NW 6.4 km/h 11.3 km/h 84% 0.51 mm
16:14 0.9 °C -1.7 °C 1005 hPa NNW 4.8 km/h 11.3 km/h 83% 0.51 mm
16:19 0.9 °C -1.5 °C 1005 hPa WNW 6.4 km/h 9.7 km/h 84% 0.51 mm
16:24 0.9 °C -1.5 °C 1005 hPa NW 8 km/h 9.7 km/h 84% 0.25 mm
16:29 0.9 °C -1.5 °C 1005 hPa NNW 4.8 km/h 9.7 km/h 84% 0.25 mm
16:34 0.8 °C -1.6 °C 1005 hPa NW 6.4 km/h 9.7 km/h 84% 0.25 mm
16:39 0.8 °C -1.6 °C 1005.3 hPa Calm   8 km/h 84% 0.25 mm
16:44 0.8 °C -1.6 °C 1005.3 hPa NW 1.6 km/h 8 km/h 84% 0.25 mm
16:49 0.8 °C -1.6 °C 1005.3 hPa NW 3.2 km/h 9.7 km/h 84% 0.25 mm
16:54 0.8 °C -1.4 °C 1005.3 hPa NW 4.8 km/h 9.7 km/h 85% 0.25 mm
16:59 0.8 °C -1.4 °C 1005.3 hPa NW 4.8 km/h 9.7 km/h 85% 0 mm
17:04 0.8 °C -1.4 °C 1005.3 hPa NW 4.8 km/h 9.7 km/h 85% 0 mm
17:09 0.8 °C -1.4 °C 1005.3 hPa NW 4.8 km/h 9.7 km/h 85% 0 mm
17:14 0.8 °C -1.4 °C 1005.3 hPa NW 3.2 km/h 8 km/h 85% 0 mm
17:19 0.8 °C -1.4 °C 1005.3 hPa WNW 3.2 km/h 9.7 km/h 85% 0 mm
17:24 0.8 °C -1.4 °C 1005.3 hPa West 1.6 km/h 11.3 km/h 85% 0 mm
17:29 0.7 °C -1.5 °C 1005.6 hPa NNW 1.6 km/h 6.4 km/h 85% 0 mm
17:34 0.8 °C -1.4 °C 1005.6 hPa NNW 1.6 km/h 8 km/h 85% 0 mm
17:39 0.7 °C -1.5 °C 1005.6 hPa NNW 3.2 km/h 6.4 km/h 85% 0.25 mm
17:44 0.7 °C -1.5 °C 1005.6 hPa NNW 1.6 km/h 4.8 km/h 85% 0.25 mm
17:49 0.7 °C -1.3 °C 1005.6 hPa NNW 1.6 km/h 4.8 km/h 86% 0.25 mm
17:54 0.7 °C -1.4 °C 1005.6 hPa NNW 3.2 km/h 11.3 km/h 86% 0.25 mm
17:59 0.7 °C -1.6 °C 1005.6 hPa NW 4.8 km/h 11.3 km/h 85% 0.25 mm
18:04 0.6 °C -1.6 °C 1005.6 hPa NNW 3.2 km/h 11.3 km/h 85% 0.25 mm
18:09 0.6 °C -1.6 °C 1005.6 hPa NW 1.6 km/h 6.4 km/h 85% 0.25 mm
18:14 0.6 °C -1.7 °C 1005.6 hPa NW 6.4 km/h 9.7 km/h 85% 0.25 mm
18:19 0.6 °C -1.7 °C 1005.6 hPa NNW 4.8 km/h 9.7 km/h 85% 0.25 mm
18:24 0.6 °C -1.5 °C 1005.6 hPa NW 1.6 km/h 9.7 km/h 86% 0.25 mm
18:29 0.6 °C -1.5 °C 1006 hPa NNW 8 km/h 8 km/h 86% 0.25 mm
18:34 0.5 °C -1.6 °C 1006 hPa WNW 8 km/h 8 km/h 86% 0.25 mm
18:39 0.5 °C -1.6 °C 1006 hPa NNW 3.2 km/h 9.7 km/h 86% 0 mm
18:44 0.4 °C -1.6 °C 1006 hPa NNW 3.2 km/h 6.4 km/h 86% 0 mm
18:49 0.4 °C -1.6 °C 1006 hPa NNW 4.8 km/h 8 km/h 86% 0 mm
18:54 0.4 °C -1.6 °C 1006 hPa NNW 4.8 km/h 8 km/h 86% 0 mm
18:59 0.4 °C -1.4 °C 1006.3 hPa NW 3.2 km/h 8 km/h 87% 0 mm
19:04 0.4 °C -1.5 °C 1006.3 hPa NW 3.2 km/h 8 km/h 87% 0 mm
19:09 0.4 °C -1.5 °C 1006.3 hPa NW 3.2 km/h 8 km/h 87% 0 mm
19:14 0.3 °C -1.6 °C 1006.3 hPa NNW 4.8 km/h 8 km/h 87% 0 mm
19:19 0.3 °C -1.6 °C 1006.3 hPa NW 1.6 km/h 8 km/h 87% 0 mm
19:24 0.3 °C -1.6 °C 1006.3 hPa WNW 3.2 km/h 11.3 km/h 87% 0 mm
19:29 0.3 °C -1.6 °C 1006.7 hPa WNW 4.8 km/h 11.3 km/h 87% 0 mm
19:34 0.3 °C -1.6 °C 1006.7 hPa WNW 3.2 km/h 11.3 km/h 87% 0 mm
19:39 0.3 °C -1.6 °C 1006.7 hPa WNW 4.8 km/h 11.3 km/h 87% 0 mm
19:44 0.3 °C -1.6 °C 1006.3 hPa NNW 1.6 km/h 9.7 km/h 87% 0 mm
19:49 0.3 °C -1.6 °C 1006.7 hPa NW 1.6 km/h 6.4 km/h 87% 0 mm
19:54 0.3 °C -1.5 °C 1006.7 hPa WNW 3.2 km/h 8 km/h 88% 0 mm
19:59 0.3 °C -1.5 °C 1006.3 hPa WNW 3.2 km/h 8 km/h 88% 0 mm
20:04 0.3 °C -1.5 °C 1006.3 hPa West 1.6 km/h 4.8 km/h 88% 0 mm
20:09 0.3 °C -1.5 °C 1006.7 hPa West 4.8 km/h 6.4 km/h 88% 0 mm
20:14 0.2 °C -1.6 °C 1006.7 hPa WNW 1.6 km/h 6.4 km/h 88% 0 mm
20:19 0.3 °C -1.5 °C 1006.7 hPa WNW 4.8 km/h 6.4 km/h 88% 0 mm
20:24 0.3 °C -1.5 °C 1006.7 hPa WNW 3.2 km/h 6.4 km/h 88% 0 mm
20:29 0.3 °C -1.5 °C 1006.3 hPa WNW 3.2 km/h 8 km/h 88% 0 mm
20:34 0.2 °C -1.6 °C 1006.3 hPa WNW 3.2 km/h 8 km/h 88% 0 mm
20:39 0.3 °C -1.5 °C 1006.3 hPa West 3.2 km/h 6.4 km/h 88% 0 mm
20:44 0.3 °C -1.5 °C 1006.7 hPa West 4.8 km/h 8 km/h 88% 0 mm
20:49 0.3 °C -1.5 °C 1006.7 hPa WNW 3.2 km/h 8 km/h 88% 0 mm
20:54 0.3 °C -1.5 °C 1006.7 hPa WSW 3.2 km/h 8 km/h 88% 0 mm
20:59 0.3 °C -1.5 °C 1006.3 hPa Calm   8 km/h 88% 0 mm
21:04 0.3 °C -1.4 °C 1006.3 hPa WSW 1.6 km/h 6.4 km/h 88% 0 mm
21:09 0.3 °C -1.5 °C 1006.3 hPa West 4.8 km/h 6.4 km/h 88% 0 mm
21:14 0.3 °C -1.3 °C 1006.3 hPa West 3.2 km/h 6.4 km/h 89% 0 mm
21:19 0.3 °C -1.3 °C 1006.7 hPa WSW 3.2 km/h 4.8 km/h 89% 0 mm
21:24 0.3 °C -1.3 °C 1006.3 hPa Calm   3.2 km/h 89% 0 mm
21:29 0.4 °C -1.2 °C 1006.3 hPa WSW 1.6 km/h 6.4 km/h 89% 0 mm
21:34 0.4 °C -1.2 °C 1006.3 hPa WSW 3.2 km/h 6.4 km/h 89% 0 mm
21:39 0.4 °C -1.2 °C 1006.3 hPa WSW 3.2 km/h 6.4 km/h 89% 0 mm
21:44 0.4 °C -1.2 °C 1006.3 hPa WSW 4.8 km/h 9.7 km/h 89% 0 mm
21:49 0.5 °C -1.1 °C 1006.3 hPa WSW 4.8 km/h 9.7 km/h 89% 0 mm
21:54 0.6 °C -1.1 °C 1006 hPa WSW 4.8 km/h 12.9 km/h 89% 0 mm
21:59 0.6 °C -1.1 °C 1006.3 hPa West 4.8 km/h 12.9 km/h 89% 0 mm
22:04 0.6 °C -1 °C 1006.3 hPa West 6.4 km/h 11.3 km/h 89% 0 mm
22:09 0.7 °C -1.1 °C 1006.3 hPa West 9.7 km/h 14.5 km/h 88% 0 mm
22:14 0.7 °C -1.1 °C 1006.3 hPa West 3.2 km/h 12.9 km/h 88% 0 mm
22:19 0.8 °C -0.9 °C 1006.3 hPa WSW 3.2 km/h 12.9 km/h 88% 0 mm
22:24 0.8 °C -1.1 °C 1006.3 hPa NNW 4.8 km/h 12.9 km/h 87% 0 mm
22:29 0.9 °C -1.1 °C 1006.3 hPa WSW 6.4 km/h 16.1 km/h 87% 0 mm
22:34 0.9 °C -1.1 °C 1006.3 hPa West 6.4 km/h 16.1 km/h 87% 0 mm
22:39 0.9 °C -1.2 °C 1006.3 hPa West 6.4 km/h 14.5 km/h 86% 0 mm
22:44 0.9 °C -1.1 °C 1006.3 hPa West 6.4 km/h 14.5 km/h 86% 0 mm
22:49 0.9 °C -1.1 °C 1006 hPa West 4.8 km/h 12.9 km/h 86% 0 mm
22:54 0.9 °C -1.2 °C 1006 hPa West 19.3 km/h 19.3 km/h 86% 0 mm
22:59 0.9 °C -1.3 °C 1006.3 hPa West 6.4 km/h 19.3 km/h 85% 0 mm
23:04 0.9 °C -1.3 °C 1006.3 hPa West 8 km/h 19.3 km/h 85% 0 mm
23:09 0.9 °C -1.4 °C 1006.3 hPa West 8 km/h 16.1 km/h 84% 0 mm
23:14 0.9 °C -1.4 °C 1006 hPa West 6.4 km/h 14.5 km/h 84% 0 mm
23:19 0.9 °C -1.4 °C 1006 hPa WNW 4.8 km/h 12.9 km/h 84% 0 mm
23:24 0.9 °C -1.4 °C 1006 hPa WNW 6.4 km/h 11.3 km/h 84% 0 mm
23:29 1 °C -1.6 °C 1006 hPa West 3.2 km/h 14.5 km/h 83% 0 mm
23:34 1 °C -1.6 °C 1006 hPa West 6.4 km/h 14.5 km/h 83% 0 mm
23:39 1 °C -1.4 °C 1006 hPa West 4.8 km/h 11.3 km/h 84% 0 mm
23:44 1 °C -1.4 °C 1006 hPa West 6.4 km/h 12.9 km/h 84% 0 mm
23:49 1 °C -1.4 °C 1006 hPa WSW 6.4 km/h 16.1 km/h 84% 0 mm
23:54 1.1 °C -1.3 °C 1005.6 hPa WSW 1.6 km/h 9.7 km/h 84% 0 mm
23:59 1 °C -1.4 °C 1005.6 hPa West 4.8 km/h 8 km/h 84% 0 mm
Buffalo, New York, USA
Compliments of Weather Underground - 2.5 mb